LKKB Weather Reports


time (UTC)temp
F
wind
direction
speed
knots
gust
knots
rain 1hr
in
rain 24hr
in
rain mn
in
humidity
%
barometer
mb
20260502163103 73 70 6.1 0.0 0.00 0.00 0.00 25 1019.0
20260502161850 73 160 4.3 0.0 0.00 0.00 0.00 23
20260502160210 75 0 1.7 0.0 0.00 0.00 0.00 23 1019.0
20260502151833 75 120 6.1 0.0 0.00 0.00 0.00 22
20260502150103 75 90 5.2 0.0 0.00 0.00 0.00 20 1020.0
20260502130103 73 80 5.2 0.0 0.00 0.00 0.00 27 1021.0
20260502123102 72 40 5.2 0.0 0.00 0.00 0.00 26 1022.0
20260502121853 72 40 4.3 0.0 0.00 0.00 0.00 26
20260502120211 72 20 4.3 0.0 0.00 0.00 0.00 30 1022.0
20260502113103 70 20 5.2 0.0 0.00 0.00 0.00 30 1023.0
20260502111852 70 60 6.1 0.0 0.00 0.00 0.00 32
20260502110211 70 20 4.3 0.0 0.00 0.00 0.00 35 1023.0
20260502103102 68 30 4.3 0.0 0.00 0.00 0.00 34 1024.0
20260502101852 68 30 4.3 0.0 0.00 0.00 0.00 37
20260502070211 55 0 1.7 0.0 0.00 0.00 0.00 54 1025.0
20260502063103 52 200 2.6 0.0 0.00 0.00 0.00 66 1025.0
20260502061853 50 200 4.3 0.0 0.00 0.00 0.00 66
20260502053102 48 190 4.3 0.0 0.00 0.00 0.00 70 1025.0
20260502051853 46 190 1.7 0.0 0.00 0.00 0.00 75
20260502043103 43 200 4.3 0.0 0.00 0.00 0.00 81 1025.0
20260502041853 43 200 4.3 0.0 0.00 0.00 0.00 81
20260502033209 43 200 4.3 0.0 0.00 0.00 0.00 81 1025.0
20260502031854 45 200 4.3 0.0 0.00 0.00 0.00 75
20260502023102 45 200 4.3 0.0 0.00 0.00 0.00 75 1025.0
20260502021852 43 190 4.3 0.0 0.00 0.00 0.00 81
20260502013210 46 170 2.6 0.0 0.00 0.00 0.00 75 1025.0
20260502011852 46 200 4.3 0.0 0.00 0.00 0.00 75
20260502010104 48 190 2.6 0.0 0.00 0.00 0.00 70 1025.0
20260502003102 46 200 4.3 0.0 0.00 0.00 0.00 75 1025.0
20260502001851 48 190 4.3 0.0 0.00 0.00 0.00 70
20260501233102 46 190 1.7 0.0 0.00 0.00 0.00 70 1026.0
20260501231854 54 200 1.7 0.0 0.00 0.00 0.00 58
20260501230210 48 200 1.7 0.0 0.00 0.00 0.00 66 1026.0
20260501223103 50 180 1.7 0.0 0.00 0.00 0.00 61 1026.0
20260501221951 52 170 1.7 0.0 0.00 0.00 0.00 57
20260501220210 52 180 2.6 0.0 0.00 0.00 0.00 57 1026.0
20260501213103 52 200 2.6 0.0 0.00 0.00 0.00 57 1026.0
20260501211851 55 300 1.7 0.0 0.00 0.00 0.00 47
20260501210103 55 320 0.9 0.0 0.00 0.00 0.00 50 1026.0
20260501203103 54 320 2.6 0.0 0.00 0.00 0.00 54 1026.0
20260501201852 63 310 1.7 0.0 0.00 0.00 0.00 36
20260501193103 63 0 1.7 0.0 0.00 0.00 0.00 39 1025.0
20260501191853 63 10 1.7 0.0 0.00 0.00 0.00 36
20260501183103 66 0 1.7 0.0 0.00 0.00 0.00 32 1025.0
20260501181852 64 20 1.7 0.0 0.00 0.00 0.00 34
20260501173103 68 360 5.2 0.0 0.00 0.00 0.00 28 1025.0
20260501171851 68 360 6.1 0.0 0.00 0.00 0.00 30